COSMOS 2024 (ETALON 2)

Last updated on Sun Dec 14 2025 00:03:38 GMT+0000 (Coordinated Universal Time)

1 20026U 89039C 25347.30484547 -.00000062 00000+0 00000+0 0 9992 2 20026 65.0502 316.9374 0020456 214.1090 157.7877 2.13204535284547
UTC large
Height (km)
Speed (km/s)
/
Latitude / Longitude
Inclination (degrees)
Orbital Period (minutes)
Azimuth
Elevation
Range (km)
Doppler Factor

Next 0 passes for location: London (51.5072 / 0.1276)

Sorry there are no passes over London.